TimeEDT,TemperatureF,Dew PointF,Humidity,Sea Level PressureIn,VisibilityMPH,Wind Direction,Wind SpeedMPH,Gust SpeedMPH,PrecipitationIn,Events,Conditions,WindDirDegrees,DateUTC
12:15 AM,41.0,12.2,31,29.81,10.0,NW,24.2,44.9,N/A,,Clear,310,2012-11-02 04:15:00
12:35 AM,41.0,14.0,33,29.81,10.0,NW,23.0,34.5,N/A,,Clear,310,2012-11-02 04:35:00
12:55 AM,41.0,14.0,33,29.81,10.0,WNW,23.0,35.7,N/A,,Clear,300,2012-11-02 04:55:00
1:15 AM,41.0,14.0,33,29.82,10.0,WNW,19.6,42.6,N/A,,Clear,300,2012-11-02 05:15:00
1:35 AM,41.0,14.0,33,29.82,10.0,WNW,19.6,27.6,N/A,,Clear,300,2012-11-02 05:35:00
2:15 AM,41.0,15.8,36,29.82,10.0,WNW,19.6,26.5,N/A,,Clear,300,2012-11-02 06:15:00
2:35 AM,41.0,15.8,36,29.82,10.0,West,19.6,29.9,N/A,,Clear,280,2012-11-02 06:35:00
2:55 AM,41.0,14.0,33,29.83,10.0,WNW,8.1,18.4,N/A,,Clear,300,2012-11-02 06:55:00
3:15 AM,41.0,14.0,33,29.84,10.0,WNW,8.1,-,N/A,,Clear,290,2012-11-02 07:15:00
3:55 AM,41.0,15.8,36,29.83,10.0,WNW,13.8,21.9,N/A,,Overcast,290,2012-11-02 07:55:00
4:15 AM,41.0,17.6,39,29.83,10.0,WNW,6.9,20.7,N/A,,Overcast,290,2012-11-02 08:15:00
4:35 AM,41.0,19.4,42,29.83,10.0,NW,12.7,19.6,N/A,,Overcast,310,2012-11-02 08:35:00
4:55 AM,41.0,19.4,42,29.83,10.0,WNW,9.2,18.4,N/A,,Overcast,300,2012-11-02 08:55:00
5:15 AM,41.0,21.2,45,29.82,10.0,NW,9.2,24.2,N/A,,Overcast,310,2012-11-02 09:15:00
5:35 AM,42.8,21.2,42,29.82,10.0,WNW,8.1,19.6,N/A,,Overcast,300,2012-11-02 09:35:00
5:55 AM,41.0,21.2,45,29.82,10.0,WNW,17.3,23.0,N/A,,Overcast,290,2012-11-02 09:55:00
6:15 AM,41.0,23.0,49,29.83,10.0,WNW,15.0,24.2,N/A,,Overcast,290,2012-11-02 10:15:00
6:35 AM,41.0,23.0,49,29.82,10.0,NW,17.3,24.2,N/A,,Overcast,310,2012-11-02 10:35:00
7:15 AM,41.0,24.8,53,29.82,10.0,WNW,17.3,27.6,N/A,,Mostly Cloudy,290,2012-11-02 11:15:00
7:55 AM,41.0,26.6,57,29.81,10.0,WNW,24.2,32.2,N/A,,Scattered Clouds,290,2012-11-02 11:55:00
8:15 AM,41.0,26.6,57,29.81,10.0,WNW,18.4,28.8,N/A,,Scattered Clouds,290,2012-11-02 12:15:00
8:35 AM,42.8,24.8,49,29.82,10.0,NW,17.3,27.6,N/A,,Scattered Clouds,310,2012-11-02 12:35:00
8:55 AM,42.8,24.8,49,29.82,10.0,WNW,18.4,25.3,N/A,,Scattered Clouds,290,2012-11-02 12:55:00
9:15 AM,42.8,26.6,53,29.82,10.0,WNW,17.3,33.4,N/A,,Clear,300,2012-11-02 13:15:00
9:35 AM,42.8,26.6,53,29.82,10.0,WNW,21.9,31.1,N/A,,Scattered Clouds,300,2012-11-02 13:35:00
10:15 AM,44.6,28.4,53,29.82,10.0,WNW,18.4,29.9,N/A,,Mostly Cloudy,290,2012-11-02 14:15:00
10:35 AM,46.4,28.4,50,29.82,10.0,WNW,21.9,38.0,N/A,,Overcast,290,2012-11-02 14:35:00
10:55 AM,46.4,28.4,50,29.82,10.0,WNW,15.0,35.7,N/A,,Overcast,290,2012-11-02 14:55:00
11:15 AM,46.4,30.2,53,29.82,10.0,NW,17.3,27.6,N/A,,Overcast,310,2012-11-02 15:15:00
11:35 AM,46.4,30.2,53,29.83,10.0,NW,12.7,33.4,N/A,,Overcast,310,2012-11-02 15:35:00
11:55 AM,46.4,30.2,53,29.84,10.0,WNW,8.1,25.3,N/A,,Overcast,300,2012-11-02 15:55:00
12:15 PM,46.4,30.2,53,29.84,10.0,NW,19.6,38.0,N/A,,Overcast,310,2012-11-02 16:15:00
12:35 PM,46.4,30.2,53,29.85,10.0,NW,8.1,26.5,N/A,,Overcast,320,2012-11-02 16:35:00
12:55 PM,46.4,30.2,53,29.84,10.0,NNW,12.7,24.2,N/A,,Overcast,330,2012-11-02 16:55:00
1:15 PM,46.4,30.2,53,29.84,10.0,NNW,18.4,32.2,N/A,,Overcast,330,2012-11-02 17:15:00
1:35 PM,48.2,30.2,50,29.84,10.0,NNW,16.1,32.2,N/A,,Mostly Cloudy,330,2012-11-02 17:35:00
1:55 PM,48.2,30.2,50,29.84,10.0,NW,18.4,31.1,N/A,,Mostly Cloudy,310,2012-11-02 17:55:00
2:15 PM,48.2,28.4,46,29.84,10.0,NNW,20.7,29.9,N/A,,Scattered Clouds,330,2012-11-02 18:15:00
2:35 PM,48.2,23.0,37,29.84,10.0,NNW,21.9,36.8,N/A,,Clear,330,2012-11-02 18:35:00
2:55 PM,48.2,21.2,34,29.85,10.0,NW,18.4,27.6,N/A,,Clear,320,2012-11-02 18:55:00
3:15 PM,48.2,21.2,34,29.85,10.0,NW,19.6,31.1,N/A,,Clear,320,2012-11-02 19:15:00
3:35 PM,50.0,21.2,32,29.85,10.0,NW,25.3,34.5,N/A,,Clear,310,2012-11-02 19:35:00
3:55 PM,50.0,21.2,32,29.87,10.0,NNW,12.7,23.0,N/A,,Clear,330,2012-11-02 19:55:00
4:15 PM,50.0,19.4,30,29.87,10.0,NNW,18.4,25.3,N/A,,Clear,330,2012-11-02 20:15:00
4:35 PM,50.0,21.2,32,29.88,10.0,WNW,11.5,24.2,N/A,,Clear,300,2012-11-02 20:35:00
4:55 PM,50.0,21.2,32,29.88,10.0,NW,10.4,21.9,N/A,,Clear,310,2012-11-02 20:55:00
5:15 PM,48.2,21.2,34,29.88,10.0,NNW,11.5,21.9,N/A,,Clear,330,2012-11-02 21:15:00
5:35 PM,48.2,21.2,34,29.89,10.0,WNW,10.4,21.9,N/A,,Clear,300,2012-11-02 21:35:00
5:55 PM,46.4,21.2,37,29.89,10.0,NW,11.5,23.0,N/A,,Clear,320,2012-11-02 21:55:00
6:15 PM,46.4,21.2,37,29.90,10.0,WNW,10.4,-,N/A,,Clear,300,2012-11-02 22:15:00
6:35 PM,46.4,21.2,37,29.91,10.0,NW,16.1,20.7,N/A,,Clear,310,2012-11-02 22:35:00
6:55 PM,46.4,23.0,40,29.91,10.0,NW,13.8,25.3,N/A,,Clear,310,2012-11-02 22:55:00
7:15 PM,44.6,23.0,43,29.92,10.0,NW,10.4,23.0,N/A,,Clear,320,2012-11-02 23:15:00
7:35 PM,44.6,23.0,43,29.93,10.0,NNW,11.5,18.4,N/A,,Clear,330,2012-11-02 23:35:00
7:55 PM,44.6,23.0,43,29.93,10.0,NW,15.0,21.9,N/A,,Clear,320,2012-11-02 23:55:00
8:15 PM,44.6,23.0,43,29.93,10.0,NW,10.4,18.4,N/A,,Clear,320,2012-11-03 00:15:00
8:35 PM,44.6,23.0,43,29.93,10.0,NNW,10.4,20.7,N/A,,Clear,330,2012-11-03 00:35:00
9:15 PM,42.8,23.0,46,29.94,10.0,NW,12.7,16.1,N/A,,Clear,320,2012-11-03 01:15:00
9:35 PM,42.8,23.0,46,29.94,10.0,NNW,6.9,18.4,N/A,,Clear,330,2012-11-03 01:35:00
9:55 PM,42.8,23.0,46,29.95,10.0,NNW,6.9,-,N/A,,Clear,330,2012-11-03 01:55:00
10:15 PM,42.8,23.0,46,29.96,10.0,NNW,9.2,19.6,N/A,,Clear,330,2012-11-03 02:15:00
10:35 PM,41.0,23.0,49,29.96,10.0,NNW,9.2,-,N/A,,Clear,330,2012-11-03 02:35:00
10:55 PM,41.0,23.0,49,29.96,10.0,North,6.9,-,N/A,,Clear,350,2012-11-03 02:55:00
11:15 PM,41.0,23.0,49,29.96,10.0,NNW,6.9,-,N/A,,Clear,340,2012-11-03 03:15:00
11:35 PM,41.0,23.0,49,29.97,10.0,NNW,5.8,-,N/A,,Clear,330,2012-11-03 03:35:00
11:55 PM,41.0,23.0,49,29.97,10.0,NNW,11.5,18.4,N/A,,Clear,340,2012-11-03 03:55:00